Regional Weather Roundup
Issued by NWS

Home | Current Version | Previous Version | Graphics & Text | Print | Product List | Glossary On
Versions: 1 2 3 4 5 6 7 8 9 10 11 12 13 14 15 16 17 18 19 20 21 22 23 24 25 26 27 28 29 30 31 32 33 34 35 36 37 38 39 40 41 42 43 44 45 46 47 48 49 50
000
ASUS44 KMEG 251010
RWRTN
TENNESSEE HOURLY STATE WEATHER ROUNDUP
NATIONAL WEATHER SERVICE MEMPHIS TN
500 AM CDT WED APR 25 2018

TNZ002-004-019-021-049-052-054-088>092-251100-
WEST TENNESSEE

CITY           SKY/WX    TMP DP  RH WIND       PRES   REMARKS
MEMPHIS INTL   FAIR      52  52 100 CALM      30.02S
NWS MEMPHIS      N/A     49 N/A N/A MISG        N/A
JACKSON        FAIR      47  47 100 CALM      30.01R FOG
DYERSBURG      FOG       52  52 100 CALM      30.01S VSB 1/4
SOMERVILLE     FOG       52  50  93 CALM      30.01S VSB 1/2
COVINGTON      FOG       48  48 100 CALM      30.02S VSB 1/4
UNION CITY     PTCLDY    52  52 100 W5        29.99S
BOLIVAR        FOG       48  48 100 CALM      30.01S VSB 1/4
PARIS          CLOUDY    50  50 100 CALM      29.99S FOG
HUNTINGDON     CLOUDY    52  52 100 W5        29.99R FOG
LEXINGTON      CLOUDY    50  50 100 CALM      30.00R FOG
SELMER         MOCLDY    50  48  93 CALM      30.00R FOG
SAVANNAH       FOG       48  48 100 CALM      30.00R VSB 1/4
$$

TNZ008-025-027-028-033-062-065-066-251100-
NORTH MIDDLE TENNESSEE

CITY           SKY/WX    TMP DP  RH WIND       PRES   REMARKS
NASHVILLE      CLOUDY    57  53  86 NW6       29.96R
PORTLAND       CLOUDY    54  54 100 NW6       29.94S
CLARKSVILLE    CLOUDY    54  51  90 W3        29.97R
SMYRNA         CLOUDY    56  52  86 NW12      29.96S
COOKEVILLE     CLOUDY    54  54 100 CALM      29.92R
LIVINGSTON     CLOUDY    54  52  94 VRB3      29.90S
GALLATIN       CLOUDY    55  52  88 NW6       29.98R
CROSSVILLE     CLOUDY    51  49  92 NW8       29.91S
ROCKWOOD       CLOUDY    54  50  87 VRB5      29.89S
$$

TNZ061-075-076-078-094-096-097-251100-
SOUTH MIDDLE TENNESSEE

CITY           SKY/WX    TMP DP  RH WIND       PRES   REMARKS
LEWISBURG      CLOUDY    55  54  94 CALM      29.95S
FAYETTEVILLE   CLOUDY    55  54  94 NW6       29.94S
TULLAHOMA      CLOUDY    54  52  94 NW5       29.93S
WINCHESTER     CLOUDY    55  52  88 W5        29.94R
MCMINNVILLE    CLOUDY    54  52  94 CALM      29.93R
COLUMBIA       CLOUDY    55  55 100 W5        29.95S
SHELBYVILLE    CLOUDY    55  54  94 NW8       29.95R
$$

TNZ017-018-042-046-047-251100-
NORTHEAST TENNESSEE

CITY           SKY/WX    TMP DP  RH WIND       PRES   REMARKS
TRI CITIES     CLOUDY    54  54 100 W7        29.84R
ELIZABETHTON   CLOUDY    55  54  94 W6        29.83R
$$

TNZ012-013-036-069-073-074-251100-
CENTRAL EAST TENNESSEE

CITY           SKY/WX    TMP DP  RH WIND       PRES   REMARKS
KNOXVILLE      CLOUDY    55  54  96 W5        29.87R
OAK RIDGE      CLOUDY    56  56 100 CALM      29.89R
DOWNTOWN KNOXV PTCLDY    54  54 100 CALM      29.88R
GATLINBURG     CLOUDY    55  54  94 CALM      29.87R
MORRISTOWN     CLOUDY    55  54  94 NW5       29.86R
JACKSBORO      CLOUDY    55  52  88 CALM      29.91R
$$

TNZ083-085-099-251100-
SOUTHEAST TENNESSEE

CITY           SKY/WX    TMP DP  RH WIND       PRES   REMARKS
CHATTANOOGA    MOCLDY    55  51  86 NW5       29.90S
DAYTON         MOSUNNY   55  54  94 CALM      29.89S
$$

SKY/WX REPORTED AS FAIR MEANS FEW OR NO CLOUDS BELOW
12 THOUSAND FEET.





USA.gov is the U.S. government's official web portal to all federal, state and local government web resources and services.